Location: Stilling
(56.0622°N, 9.9882°E)
Time: 13:18:57
(UTC+00:00)

Gbstr 26 Del rocket - Pass Details

Date: 13 July 2020
Orbit: 492 x 1264 km, 51.8° (Epoch: 06 August)

Event Time Altitude Azimuth Distance (km) Brightness Sun altitude
Rises 22:05:13 0° 237° (WSW) 2,569 6.1 -10.4°
Reaches altitude 10° 22:07:28 10° 228° (SW) 1,688 5.1 -10.5°
Maximum altitude 22:10:52 34° 162° (SSE) 846 3.2 -10.7°
Drops below altitude 10° 22:14:32 10° 96° (E) 1,813 5.2 -10.8°
Sets 22:17:01 0° 88° (E) 2,795 6.3 -10.9°
